|
NORAD ID: 38185 Int'l Code: 2010-051F
Perigee: 453.2 km
Apogee: 542.4 km
Inclination: 97.6 °
Period: 94.4 minutes
Semi major axis: 6868 km
Launch date: October 6, 2010
Source: People's Republic of China (PRC)
Note: This is SATELLITE DEBRIS
Two Line Element Set (TLE):
1 38185U 10051F 13140.60725001 .00043253 00000-0 16250-2 0 2426
2 38185 097.6088 184.7205 0064986 256.1111 263.9466 15.25045501142227
Source:
NASA's NSSDC Master Catalog entry for CZ-4B DEB
|